#timestamp,LO_Frequency,Hit 
1504933215.5,286046973.7,N
1504933235.3,286046972.0,N
1504933255.1,286046967.7,N
1504933275.9,286046967.3,N
1504933295.7,286046967.6,N
1504933315.5,286046963.0,N
1504933335.4,286046959.8,N
1504933355.2,286046962.4,N
1504933375.0,286046958.7,P
1504933375.9,286046958.7,P
1504933395.8,286046981.3,N
1504933415.6,286046981.2,N
1504933435.4,286046984.2,N
1504933455.3,286046984.3,N
1504933475.1,286046986.2,N
1504933476.0,286046986.2,N
1504933495.8,286046983.4,N
1504933515.7,286046983.0,N
1504933535.5,286046982.9,N
1504933555.3,286046980.5,N
1504933575.1,286046987.9,N
1504933595.9,286046989.7,N
1504933615.7,286046987.5,N
1504933635.5,286046986.3,N
1504933655.4,286046986.0,N
1504933675.2,286046988.3,N
1504933695.0,286046991.4,N
1504933695.9,286046991.4,N
1504933715.8,286046991.1,N
1504933735.6,286046989.5,N
1504933755.4,286046987.4,N
1504933775.3,286046986.2,N
1504933795.1,286046982.7,N
1504933796.0,286046982.7,N
1504933815.8,286046984.7,N
1504933835.7,286046983.0,N
1504933855.5,286046983.2,N
1504933875.3,286046982.5,N
1504933895.2,286046982.3,N
1504933915.9,286046988.9,N
1504933935.7,286046995.9,N
1504933955.5,286046999.3,N
1504933975.4,286047002.2,N
1504933995.2,286047006.8,N
1504934015.0,286047007.8,N
1504934015.9,286047007.8,N
1504934035.8,286047013.5,N
1504934055.6,286047016.5,N
1504934075.4,286047011.5,N
1504934095.3,286047016.3,N
1504934115.1,286047014.9,N
1504934116.0,286047014.9,N
1504934135.8,286047015.2,N
1504934155.7,286047019.8,N
1504934175.5,286047023.6,N
1504934195.3,286047021.9,N
1504934215.2,286047019.8,N
1504934235.9,286047019.4,N
1504934255.7,286047019.8,N
1504934275.5,286047016.2,N
1504934295.4,286047016.6,N
1504934315.2,286047016.8,N
1504934335.0,286047015.8,N
1504934335.9,286047015.8,N
1504934355.8,286047015.8,N
1504934375.6,286047015.8,N
1504934395.4,286047018.2,N
1504934415.3,286047017.0,N
1504934435.1,286047016.5,N
1504934455.8,286047019.7,N
1504934475.7,286047019.5,P
1504934495.5,286047007.0,N
1504934515.3,286047008.2,N
1504934535.2,286047008.3,N
1504934555.9,286047013.6,N
1504934575.7,286047016.4,P
1504934595.6,286047003.2,N
1504934615.4,286047001.3,N
1504934635.2,286046998.8,N
1504934655.1,286046996.7,N
1504934656.0,286046996.7,N
1504934675.8,286046997.7,N
1504934695.6,286046997.6,N
1504934715.5,286046997.5,N
1504934735.3,286046995.7,N
1504934755.1,286046998.7,N
1504934775.9,286047002.2,N
1504934795.7,286046999.7,N
1504934815.5,286047006.0,N
1504934835.4,286047002.0,N
1504934855.2,286046995.2,N
1504934875.0,286046990.7,N
1504934875.9,286046990.7,N
1504934895.7,286046989.6,N
1504934915.6,286046980.6,P
1504934935.4,286046982.2,N
1504934955.3,286046984.4,N
1504934975.1,286046989.4,N
1504934976.0,286046989.4,N
1504934995.8,286046987.7,N
1504935015.7,286046982.5,P
1504935035.5,286046993.0,N
1504935055.3,286046990.3,N
1504935075.2,286046987.3,P
1504935095.9,286047002.4,P
1504935115.7,286047005.1,N
1504935135.6,286047004.3,N
1504935155.4,286046998.3,N
1504935175.2,286046993.3,N
1504935195.1,286046993.9,N
1504935196.0,286046993.9,N
1504935215.8,286046991.7,N
1504935235.6,286046993.6,N
1504935255.4,286046993.5,N
1504935275.3,286046990.8,N
1504935295.1,286046989.0,N
1504935315.8,286046993.1,N
1504935335.7,286046995.8,N
1504935355.5,286046996.0,N
1504935375.3,286046989.2,N
1504935395.2,286046988.7,N
1504935415.9,286046987.1,N
1504935435.7,286046989.2,N
1504935455.6,286046990.2,N
1504935475.4,286046997.9,N
1504935495.2,286046998.6,N
1504935515.1,286047002.7,N
1504935516.0,286047002.7,N
1504935535.8,286046996.8,N
1504935555.6,286046990.2,N
1504935575.5,286046989.0,N
1504935595.3,286046991.3,N
1504935615.1,286046992.8,N
1504935635.8,286046994.7,N
1504935655.7,286046993.2,N
1504935675.5,286046988.2,N
1504935695.3,286046985.9,P
1504935715.2,286046991.4,N
1504935735.0,286046993.7,N
1504935735.9,286046993.7,N
1504935755.7,286046993.7,N
1504935775.6,286046997.1,N
1504935795.4,286047002.3,N
1504935815.2,286047004.7,N
1504935835.1,286047003.7,N
1504935836.0,286047003.7,N
1504935855.8,286047001.5,N
1504935875.6,286047004.8,N
1504935895.5,286047005.1,N
1504935915.3,286047009.1,N
1504935935.1,286047013.2,N
1504935955.9,286047015.6,N
1504935975.7,286047014.1,N
1504935995.5,286047016.7,N
1504936015.4,286047014.2,N
1504936035.2,286047019.3,N
1504936055.0,286047019.4,N
1504936055.9,286047019.4,N
1504936075.8,286047022.7,N
1504936095.6,286047022.2,N
1504936115.4,286047023.2,N
1504936135.2,286047022.7,N
1504936155.1,286047026.8,N
1504936156.0,286047026.8,N
1504936175.8,286047024.6,N
1504936195.6,286047024.1,N
1504936215.5,286047025.9,N
1504936235.3,286047026.6,N
1504936255.1,286047022.7,N
1504936275.9,286047024.3,N
1504936295.7,286047024.2,N
1504936315.5,286047024.4,N
1504936335.4,286047026.4,P
1504936355.2,286047008.3,N
1504936375.0,286047007.1,N
1504936375.9,286047007.1,N
1504936395.8,286047006.1,N
1504936415.6,286047006.4,N
1504936435.4,286047008.1,N
1504936455.3,286047008.5,N
1504936475.1,286047009.6,N
1504936476.0,286047009.6,N
1504936495.8,286047013.1,N
1504936515.7,286047014.0,N
1504936535.5,286047009.5,N
1504936555.3,286047008.1,N
1504936575.1,286047010.2,N
1504936595.9,286047006.4,N
1504936615.7,286047006.1,N
1504936635.5,286047009.5,N
1504936655.4,286047007.9,N
1504936675.2,286047011.2,N
1504936695.0,286047012.0,N
1504936695.9,286047012.0,N
1504936715.8,286047009.5,N
1504936735.6,286047011.5,N
1504936755.4,286047013.1,P
1504936775.3,286047003.1,N
1504936795.1,286047002.0,N
